| time (UTC) | temp C | wind direction | speed KPH | gust KPH | rain 1hr cm | rain 24hr cm | rain mn cm | humidity % | barometer mb |
| 20260505052001 | 6 | 350 | 0.0 | 0.0 | 0.00 | 0.00 | 0.00 | 99 | 1015.2 |
| 20260505051458 | 6 | 323 | 0.0 | 0.0 | 0.00 | 0.00 | 0.00 | 99 | 1015.0 |
| 20260505050956 | 6 | 323 | 0.0 | 0.0 | 0.00 | 0.00 | 0.00 | 99 | 1015.2 |
| 20260505050454 | 6 | 323 | 0.0 | 0.0 | 0.00 | 0.00 | 0.00 | 99 | 1015.1 |
| 20260505041422 | 7 | 135 | 0.0 | 0.0 | 0.00 | 0.00 | 0.00 | 99 | 1015.2 |
| 20260505040919 | 7 | 293 | 0.0 | 0.0 | 0.00 | 0.00 | 0.00 | 99 | 1015.2 |
| 20260505040416 | 7 | 295 | 0.0 | 1.6 | 0.00 | 0.05 | 0.05 | 99 | 1015.0 |
| 20260505035913 | 6 | 293 | 0.0 | 0.0 | 0.00 | 0.05 | 0.05 | 99 | 1015.1 |
| 20260505035409 | 6 | 240 | 0.0 | 0.0 | 0.00 | 0.05 | 0.05 | 99 | 1015.1 |
| 20260505034907 | 6 | 253 | 0.0 | 0.0 | 0.00 | 0.05 | 0.05 | 99 | 1015.1 |
| 20260505034403 | 6 | 294 | 1.6 | 3.2 | 0.00 | 0.05 | 0.05 | 99 | 1015.0 |
| 20260505033900 | 6 | 157 | 0.0 | 0.0 | 0.00 | 0.05 | 0.05 | 99 | 1015.1 |
| 20260505033356 | 6 | 159 | 0.0 | 0.0 | 0.00 | 0.05 | 0.05 | 99 | 1015.1 |
| 20260505032855 | 7 | 171 | 0.0 | 0.0 | 0.00 | 0.05 | 0.05 | 99 | 1015.1 |
| 20260505032351 | 7 | 173 | 0.0 | 0.0 | 0.00 | 0.05 | 0.05 | 99 | 1015.0 |
| 20260505031848 | 7 | 206 | 0.0 | 0.0 | 0.00 | 0.05 | 0.05 | 99 | 1014.9 |
| 20260505031345 | 7 | 207 | 0.0 | 0.0 | 0.00 | 0.05 | 0.05 | 99 | 1015.1 |
| 20260505030842 | 7 | 207 | 0.0 | 0.0 | 0.00 | 0.05 | 0.05 | 99 | 1014.9 |
| 20260505030338 | 7 | 207 | 0.0 | 0.0 | 0.00 | 0.05 | 0.05 | 99 | 1015.0 |
| 20260505025833 | 7 | 208 | 0.0 | 0.0 | 0.00 | 0.05 | 0.05 | 99 | 1014.9 |
| 20260505025331 | 7 | 208 | 0.0 | 0.0 | 0.00 | 0.05 | 0.05 | 99 | 1015.2 |
| 20260505024830 | 7 | 126 | 0.0 | 0.0 | 0.00 | 0.05 | 0.05 | 99 | 1015.1 |
| 20260505024327 | 8 | 126 | 0.0 | 0.0 | 0.00 | 0.05 | 0.05 | 99 | 1015.1 |
| 20260505023824 | 7 | 126 | 0.0 | 0.0 | 0.00 | 0.05 | 0.05 | 99 | 1015.0 |
| 20260505023321 | 8 | 103 | 1.6 | 1.6 | 0.00 | 0.05 | 0.05 | 99 | 1014.9 |
| 20260505022818 | 8 | 93 | 1.6 | 1.6 | 0.00 | 0.05 | 0.05 | 98 | 1015.0 |
| 20260505022315 | 8 | 305 | 0.0 | 0.0 | 0.00 | 0.05 | 0.05 | 99 | 1014.9 |
| 20260505021812 | 8 | 125 | 0.0 | 1.6 | 0.00 | 0.05 | 0.05 | 99 | 1014.9 |
| 20260505021309 | 8 | 109 | 0.0 | 0.0 | 0.00 | 0.05 | 0.05 | 97 | 1014.9 |
| 20260505020805 | 9 | 129 | 0.0 | 0.0 | 0.00 | 0.05 | 0.05 | 99 | 1014.9 |
| 20260505020300 | 9 | 127 | 0.0 | 0.0 | 0.00 | 0.05 | 0.05 | 98 | 1015.1 |
| 20260505015757 | 9 | 77 | 0.0 | 1.6 | 0.00 | 0.05 | 0.05 | 98 | 1015.1 |
| 20260505015254 | 8 | 296 | 3.2 | 4.8 | 0.00 | 0.05 | 0.05 | 98 | 1015.0 |
| 20260505014752 | 8 | 120 | 1.6 | 1.6 | 0.00 | 0.05 | 0.05 | 97 | 1015.1 |
| 20260505014249 | 9 | 354 | 0.0 | 0.0 | 0.00 | 0.05 | 0.05 | 97 | 1014.9 |
| 20260505013745 | 10 | 88 | 0.0 | 0.0 | 0.00 | 0.05 | 0.05 | 97 | 1015.0 |
| 20260505013243 | 10 | 16 | 0.0 | 0.0 | 0.00 | 0.05 | 0.05 | 97 | 1014.9 |
| 20260505012741 | 10 | 51 | 0.0 | 0.0 | 0.00 | 0.05 | 0.05 | 97 | 1014.9 |
| 20260505012238 | 10 | 317 | 0.0 | 0.0 | 0.00 | 0.05 | 0.05 | 96 | 1014.8 |
| 20260505011733 | 10 | 316 | 0.0 | 0.0 | 0.00 | 0.05 | 0.05 | 96 | 1014.8 |
| 20260505011231 | 10 | 316 | 0.0 | 0.0 | 0.00 | 0.05 | 0.05 | 96 | 1014.6 |
| 20260505010726 | 11 | 316 | 0.0 | 0.0 | 0.00 | 0.05 | 0.05 | 96 | 1014.6 |
| 20260505010223 | 10 | 112 | 0.0 | 0.0 | 0.00 | 0.05 | 0.05 | 96 | 1014.6 |
| 20260505005719 | 10 | 113 | 0.0 | 0.0 | 0.00 | 0.05 | 0.05 | 94 | 1014.6 |
| 20260505005216 | 11 | 114 | 0.0 | 0.0 | 0.00 | 0.05 | 0.05 | 94 | 1014.7 |
| 20260505004713 | 11 | 114 | 0.0 | 0.0 | 0.00 | 0.05 | 0.05 | 96 | 1014.7 |
| 20260505004210 | 11 | 111 | 0.0 | 0.0 | 0.00 | 0.05 | 0.05 | 95 | 1014.5 |
| 20260505003707 | 11 | 126 | 0.0 | 0.0 | 0.00 | 0.05 | 0.05 | 93 | 1014.7 |
| 20260505003205 | 11 | 126 | 0.0 | 0.0 | 0.00 | 0.05 | 0.05 | 89 | 1014.3 |
| 20260505002701 | 12 | 108 | 0.0 | 0.0 | 0.00 | 0.05 | 0.05 | 92 | 1014.4 |
| 20260505002159 | 12 | 136 | 0.0 | 0.0 | 0.00 | 0.05 | 0.05 | 90 | 1014.4 |
| 20260505001655 | 12 | 160 | 0.0 | 0.0 | 0.00 | 0.05 | 0.05 | 90 | 1014.4 |
| 20260505001153 | 13 | 160 | 0.0 | 0.0 | 0.00 | 0.05 | 0.05 | 87 | 1014.3 |
| 20260505000650 | 14 | 162 | 0.0 | 0.0 | 0.00 | 0.05 | 0.05 | 84 | 1014.4 |
| 20260505000148 | 15 | 238 | 0.0 | 0.0 | 0.00 | 0.05 | 0.05 | 81 | 1014.4 |
| 20260504235644 | 15 | 245 | 0.0 | 0.0 | 0.00 | 0.05 | 0.05 | 80 | 1014.3 |
| 20260504235140 | 15 | 296 | 0.0 | 1.6 | 0.00 | 0.05 | 0.05 | 79 | 1014.3 |
| 20260504234638 | 16 | 285 | 0.0 | 1.6 | 0.00 | 0.05 | 0.05 | 77 | 1014.1 |
| 20260504234135 | 16 | 288 | 0.0 | 0.0 | 0.00 | 0.05 | 0.05 | 76 | 1014.3 |
| 20260504233631 | 16 | 296 | 0.0 | 3.2 | 0.00 | 0.05 | 0.05 | 75 | 1014.1 |
| 20260504233127 | 16 | 275 | 0.0 | 0.0 | 0.00 | 0.05 | 0.05 | 74 | 1014.2 |
| 20260504232625 | 17 | 206 | 0.0 | 4.8 | 0.00 | 0.05 | 0.05 | 74 | 1014.1 |
| 20260504232121 | 17 | 298 | 0.0 | 1.6 | 0.00 | 0.05 | 0.05 | 72 | 1014.3 |
| 20260504231618 | 17 | 290 | 1.6 | 3.2 | 0.00 | 0.05 | 0.05 | 70 | 1014.0 |
| 20260504231114 | 18 | 292 | 0.0 | 1.6 | 0.00 | 0.05 | 0.05 | 68 | 1014.1 |
| 20260504230610 | 18 | 302 | 0.0 | 3.2 | 0.00 | 0.05 | 0.05 | 69 | 1014.1 |
| 20260504230109 | 17 | 61 | 0.0 | 0.0 | 0.00 | 0.05 | 0.05 | 69 | 1014.1 |
| 20260504225607 | 17 | 133 | 0.0 | 0.0 | 0.00 | 0.05 | 0.05 | 64 | 1014.3 |
| 20260504225103 | 17 | 144 | 0.0 | 0.0 | 0.00 | 0.05 | 0.05 | 63 | 1014.3 |
| 20260504224600 | 18 | 100 | 0.0 | 1.6 | 0.00 | 0.05 | 0.05 | 61 | 1014.5 |
| 20260504224057 | 19 | 160 | 0.0 | 1.6 | 0.00 | 0.05 | 0.05 | 63 | 1014.2 |
| 20260504223554 | 19 | 131 | 0.0 | 4.8 | 0.00 | 0.05 | 0.05 | 62 | 1014.2 |
| 20260504223050 | 19 | 242 | 0.0 | 0.0 | 0.00 | 0.05 | 0.05 | 63 | 1014.3 |
| 20260504222547 | 18 | 307 | 0.0 | 0.0 | 0.00 | 0.05 | 0.05 | 60 | 1014.2 |
| 20260504222044 | 18 | 253 | 0.0 | 1.6 | 0.00 | 0.05 | 0.05 | 66 | 1014.3 |
| 20260504221542 | 18 | 313 | 1.6 | 3.2 | 0.00 | 0.05 | 0.05 | 64 | 1014.6 |
| 20260504221038 | 18 | 308 | 0.0 | 3.2 | 0.00 | 0.05 | 0.05 | 69 | 1014.6 |
| 20260504220535 | 17 | 241 | 1.6 | 1.6 | 0.00 | 0.05 | 0.05 | 68 | 1014.8 |
| 20260504220032 | 17 | 301 | 0.0 | 3.2 | 0.00 | 0.05 | 0.05 | 73 | 1014.6 |
| 20260504215528 | 16 | 128 | 0.0 | 0.0 | 0.00 | 0.05 | 0.05 | 75 | 1014.7 |
| 20260504215026 | 15 | 87 | 0.0 | 1.6 | 0.18 | 0.05 | 0.05 | 80 | 1014.7 |
| 20260504214521 | 15 | 156 | 0.0 | 0.0 | 0.18 | 0.05 | 0.05 | 83 | 1014.9 |
| 20260504214018 | 15 | 132 | 0.0 | 3.2 | 0.00 | 0.03 | 0.03 | 83 | 1014.9 |
| 20260504213514 | 15 | 166 | 0.0 | 3.2 | 0.00 | 0.03 | 0.03 | 81 | 1014.8 |
| 20260504213012 | 15 | 300 | 0.0 | 3.2 | 0.00 | 0.03 | 0.03 | 79 | 1014.8 |
| 20260504212507 | 14 | 139 | 0.0 | 0.0 | 0.00 | 0.03 | 0.03 | 84 | 1014.4 |
| 20260504212005 | 14 | 219 | 0.0 | 0.0 | 0.00 | 0.03 | 0.03 | 85 | 1014.7 |
| 20260504211501 | 14 | 154 | 1.6 | 1.6 | 0.00 | 0.03 | 0.03 | 83 | 1014.6 |
| 20260504210959 | 13 | 125 | 0.0 | 0.0 | 0.00 | 0.03 | 0.03 | 84 | 1014.5 |
| 20260504210456 | 13 | 320 | 0.0 | 3.2 | 0.00 | 0.03 | 0.03 | 80 | 1014.3 |
| 20260504205952 | 14 | 293 | 1.6 | 3.2 | 0.00 | 0.03 | 0.03 | 75 | 1014.3 |
| 20260504205450 | 15 | 45 | 4.8 | 9.7 | 0.00 | 0.03 | 0.03 | 75 | 1015.1 |
| 20260504204948 | 17 | 44 | 6.4 | 33.8 | 0.00 | 0.03 | 0.03 | 66 | 1014.9 |
| 20260504204446 | 19 | 182 | 9.7 | 22.5 | 0.00 | 0.03 | 0.03 | 50 | 1014.6 |
| 20260504203945 | 19 | 284 | 1.6 | 4.8 | 0.00 | 0.03 | 0.03 | 50 | 1013.7 |
| 20260504203442 | 20 | 297 | 0.0 | 1.6 | 0.00 | 0.03 | 0.03 | 48 | 1013.9 |
| 20260504202938 | 20 | 254 | 1.6 | 3.2 | 0.00 | 0.03 | 0.03 | 51 | 1013.6 |
| 20260504202435 | 20 | 262 | 0.0 | 3.2 | 0.00 | 0.03 | 0.03 | 48 | 1013.6 |
| 20260504201932 | 20 | 287 | 1.6 | 9.7 | 0.00 | 0.03 | 0.03 | 48 | 1013.7 |
| 20260504201429 | 21 | 94 | 3.2 | 6.4 | 0.00 | 0.03 | 0.03 | 48 | 1013.4 |
| 20260504200927 | 23 | 122 | 1.6 | 9.7 | 0.00 | 0.03 | 0.03 | 46 | 1013.7 |
| 20260504200423 | 23 | 290 | 3.2 | 12.9 | 0.00 | 0.03 | 0.03 | 44 | 1013.4 |
| 20260504195920 | 22 | 327 | 4.8 | 16.1 | 0.00 | 0.03 | 0.03 | 42 | 1013.3 |
| 20260504195416 | 21 | 76 | 1.6 | 3.2 | 0.00 | 0.03 | 0.03 | 48 | 1013.4 |
| 20260504194912 | 21 | 313 | 8.0 | 16.1 | 0.00 | 0.03 | 0.03 | 44 | 1013.6 |
| 20260504194408 | 20 | 341 | 3.2 | 3.2 | 0.00 | 0.03 | 0.03 | 47 | 1013.9 |
| 20260504193904 | 20 | 168 | 1.6 | 6.4 | 0.00 | 0.03 | 0.03 | 49 | 1013.7 |
| 20260504193402 | 20 | 327 | 3.2 | 12.9 | 0.00 | 0.03 | 0.03 | 48 | 1013.6 |
| 20260504192900 | 20 | 301 | 6.4 | 11.3 | 0.00 | 0.03 | 0.03 | 49 | 1013.9 |
| 20260504192357 | 20 | 204 | 4.8 | 6.4 | 0.00 | 0.03 | 0.03 | 47 | 1014.0 |
| 20260504191856 | 22 | 317 | 3.2 | 6.4 | 0.00 | 0.03 | 0.03 | 43 | 1013.9 |
| 20260504191354 | 22 | 247 | 3.2 | 4.8 | 0.00 | 0.03 | 0.03 | 45 | 1014.1 |
| 20260504190849 | 22 | 76 | 1.6 | 6.4 | 0.00 | 0.03 | 0.03 | 49 | 1014.1 |
| 20260504190345 | 21 | 206 | 6.4 | 11.3 | 0.00 | 0.03 | 0.03 | 50 | 1014.2 |
| 20260504185842 | 20 | 295 | 1.6 | 9.7 | 0.00 | 0.03 | 0.03 | 52 | 1014.1 |
| 20260504185339 | 20 | 9 | 4.8 | 12.9 | 0.00 | 0.03 | 0.03 | 47 | 1014.2 |
| 20260504184835 | 20 | 343 | 3.2 | 6.4 | 0.00 | 0.03 | 0.03 | 47 | 1014.4 |
| 20260504184331 | 21 | 332 | 3.2 | 14.5 | 0.00 | 0.03 | 0.03 | 52 | 1014.3 |
| 20260504183826 | 20 | 308 | 6.4 | 11.3 | 0.00 | 0.03 | 0.03 | 51 | 1014.5 |
| 20260504183324 | 20 | 326 | 1.6 | 6.4 | 0.00 | 0.03 | 0.03 | 54 | 1014.8 |
| 20260504182822 | 18 | 343 | 3.2 | 12.9 | 0.00 | 0.03 | 0.03 | 53 | 1015.0 |
| 20260504182319 | 18 | 264 | 3.2 | 12.9 | 0.00 | 0.03 | 0.03 | 52 | 1014.8 |
| 20260504181816 | 19 | 240 | 4.8 | 9.7 | 0.00 | 0.03 | 0.03 | 53 | 1015.1 |
| 20260504181314 | 19 | 330 | 4.8 | 4.8 | 0.00 | 0.03 | 0.03 | 51 | 1015.0 |
| 20260504180812 | 19 | 285 | 0.0 | 6.4 | 0.00 | 0.03 | 0.03 | 56 | 1015.1 |
| 20260504180310 | 18 | 327 | 9.7 | 11.3 | 0.00 | 0.03 | 0.03 | 52 | 1014.9 |
| 20260504175808 | 18 | 286 | 4.8 | 14.5 | 0.00 | 0.03 | 0.03 | 54 | 1015.2 |
| 20260504175305 | 18 | 90 | 1.6 | 11.3 | 0.00 | 0.03 | 0.03 | 55 | 1015.3 |
| 20260504174803 | 18 | 278 | 6.4 | 14.5 | 0.00 | 0.03 | 0.03 | 55 | 1015.5 |
| 20260504174300 | 18 | 280 | 4.8 | 11.3 | 0.00 | 0.03 | 0.03 | 53 | 1015.5 |
| 20260504173756 | 18 | 290 | 6.4 | 12.9 | 0.00 | 0.03 | 0.03 | 53 | 1015.5 |
| 20260504173253 | 19 | 301 | 1.6 | 11.3 | 0.00 | 0.03 | 0.03 | 52 | 1015.7 |
| 20260504172750 | 18 | 241 | 4.8 | 14.5 | 0.00 | 0.03 | 0.03 | 53 | 1015.6 |
| 20260504172247 | 19 | 87 | 3.2 | 4.8 | 0.00 | 0.03 | 0.03 | 53 | 1016.0 |
| 20260504171743 | 19 | 326 | 3.2 | 9.7 | 0.00 | 0.03 | 0.03 | 56 | 1016.0 |
| 20260504171240 | 18 | 169 | 3.2 | 9.7 | 0.00 | 0.03 | 0.03 | 56 | 1015.9 |
| 20260504170737 | 17 | 288 | 3.2 | 11.3 | 0.00 | 0.03 | 0.03 | 56 | 1015.9 |
| 20260504170234 | 17 | 262 | 6.4 | 11.3 | 0.00 | 0.03 | 0.03 | 61 | 1016.2 |
| 20260504160153 | 14 | 344 | 3.2 | 3.2 | 0.00 | 0.03 | 0.03 | 55 | 1017.4 |
| 20260504151120 | 14 | 93 | 3.2 | 6.4 | 0.00 | 0.03 | 0.03 | 55 | 1017.4 |
| 20260504150618 | 15 | 56 | 3.2 | 9.7 | 0.00 | 0.03 | 0.03 | 52 | 1017.5 |
| 20260504150115 | 14 | 274 | 3.2 | 11.3 | 0.00 | 0.03 | 0.03 | 59 | 1017.7 |
| 20260504141043 | 13 | 297 | 1.6 | 9.7 | 0.00 | 0.03 | 0.03 | 57 | 1017.7 |
| 20260504140540 | 12 | 312 | 3.2 | 9.7 | 0.00 | 0.03 | 0.03 | 59 | 1017.7 |
| 20260504130504 | 10 | 289 | 3.2 | 3.2 | 0.00 | 0.03 | 0.03 | 76 | 1017.6 |
| 20260504110351 | 2 | 37 | 0.0 | 0.0 | 0.00 | 0.03 | 0.03 | 99 | 1017.7 |
| 20260504100309 | 2 | 108 | 0.0 | 0.0 | 0.00 | 0.03 | 0.03 | 99 | 1017.5 |
| 20260504081702 | 4 | 139 | 0.0 | 0.0 | 0.00 | 0.03 | 0.03 | 98 | 1017.4 |
| 20260504081158 | 5 | 141 | 0.0 | 0.0 | 0.00 | 0.03 | 0.03 | 98 | 1017.8 |
| 20260504080655 | 5 | 144 | 0.0 | 1.6 | 0.00 | 0.03 | 0.03 | 97 | 1017.6 |
| 20260504080152 | 5 | 144 | 0.0 | 1.6 | 0.00 | 0.03 | 0.03 | 97 | 1017.6 |
| 20260504070119 | 6 | 90 | 1.6 | 1.6 | 0.00 | 0.03 | 0.03 | 95 | 1018.0 |